When you browse on this site, cookies collect data to enhance your experience and personalize the content and advertising you see.
Visit our Privacy Policy to learn more. By continuing to use the site, you agree to this use of cookies and data.
  • In Hungary
  • List of Countries
  • For 7 days
  • Water Temperature
  • Satellite Maps
  • Weather Map
  • News
  • Weather Widgets
  • user-avatar
    Login

    Hourly Weather Kamarhati

    Today, 16 July, Tuesday

    Time Temperature Precipitation Wind Pressure Humidity
    00:00 +32°C° 0 mm 1 mps 749 mmHg 72%
    01:00 +32°C° 0 mm 2 mps 749 mmHg 74%
    02:00 +32°C° 0 mm 2 mps 749 mmHg 76%
    03:00 +31°C° 0 mm 2 mps 748 mmHg 78%
    04:00 +31°C° 0.6 mm 2 mps 749 mmHg 78%
    05:00 +31°C° 0.6 mm 2 mps 749 mmHg 78%
    06:00 +32°C° 0 mm 1 mps 749 mmHg 78%
    07:00 +33°C° 0.3 mm 1 mps 749 mmHg 70%
    08:00 +35°C° 0.3 mm 2 mps 750 mmHg 62%
    09:00 +37°C° 0.3 mm 2 mps 750 mmHg 54%
    10:00 +37°C° 0 mm 1 mps 750 mmHg 50%
    11:00 +39°C° 0 mm 1 mps 750 mmHg 46%
    12:00 +38°C° 0 mm 0 mps 751 mmHg 42%
    13:00 +41°C° 0 mm 1 mps 750 mmHg 42%
    14:00 +40°C° 0 mm 1 mps 749 mmHg 42%
    15:00 +40°C° 0 mm 1 mps 749 mmHg 43%
    16:00 +38°C° 2.3 mm 3 mps 748 mmHg 52%
    17:00 +36°C° 2.3 mm 4 mps 748 mmHg 62%
    18:00 +33°C° 2.3 mm 5 mps 748 mmHg 72%
    19:00 +33°C° 1.6 mm 4 mps 749 mmHg 71%
    20:00 +33°C° 1.6 mm 3 mps 749 mmHg 70%
    21:00 +32°C° 1.6 mm 1 mps 750 mmHg 69%
    22:00 +32°C° 0.5 mm 2 mps 750 mmHg 71%
    23:00 +32°C° 0.5 mm 2 mps 750 mmHg 72%

    Tomorrow, 17 July, Wednesday

    Time Temperature Precipitation Wind Pressure Humidity
    00:00 +32°C° 0.5 mm 2 mps 750 mmHg 74%
    01:00 +32°C° 0 mm 2 mps 750 mmHg 74%
    02:00 +32°C° 0 mm 1 mps 749 mmHg 75%
    03:00 +31°C° 0 mm 1 mps 749 mmHg 75%
    04:00 +31°C° 0 mm 1 mps 749 mmHg 75%
    05:00 +31°C° 0 mm 1 mps 749 mmHg 76%
    06:00 +31°C° 0 mm 1 mps 750 mmHg 76%
    07:00 +33°C° 0 mm 1 mps 750 mmHg 70%
    08:00 +34°C° 0 mm 1 mps 750 mmHg 64%
    09:00 +36°C° 0 mm 2 mps 750 mmHg 58%
    10:00 +37°C° 0 mm 2 mps 750 mmHg 54%
    11:00 +38°C° 0 mm 2 mps 750 mmHg 49%
    12:00 +40°C° 0 mm 3 mps 750 mmHg 45%
    13:00 +40°C° 0 mm 2 mps 749 mmHg 44%
    14:00 +40°C° 0 mm 2 mps 748 mmHg 44%
    15:00 +40°C° 0 mm 2 mps 748 mmHg 43%
    16:00 +39°C° 0 mm 3 mps 748 mmHg 46%
    17:00 +39°C° 0 mm 3 mps 748 mmHg 49%
    18:00 +38°C° 0 mm 3 mps 748 mmHg 52%
    19:00 +37°C° 0.1 mm 4 mps 748 mmHg 57%
    20:00 +35°C° 0.1 mm 4 mps 749 mmHg 61%
    21:00 +34°C° 0.1 mm 4 mps 749 mmHg 65%
    22:00 +34°C° 0 mm 4 mps 749 mmHg 67%
    23:00 +33°C° 0 mm 4 mps 749 mmHg 70%

    Day after tomorrow, 18 July, Thursday

    Time Temperature Precipitation Wind Pressure Humidity
    00:00 +33°C° 0 mm 3 mps 749 mmHg 72%
    01:00 +33°C° 0 mm 3 mps 749 mmHg 73%
    02:00 +32°C° 0 mm 2 mps 749 mmHg 75%
    03:00 +31°C° 0 mm 2 mps 749 mmHg 77%
    04:00 +31°C° 0 mm 2 mps 749 mmHg 78%
    05:00 +31°C° 0 mm 2 mps 749 mmHg 79%
    06:00 +31°C° 0 mm 2 mps 749 mmHg 80%
    07:00 +32°C° 0 mm 2 mps 750 mmHg 72%
    08:00 +35°C° 0 mm 2 mps 750 mmHg 65%
    09:00 +36°C° 0 mm 2 mps 750 mmHg 58%
    10:00 +37°C° 0 mm 3 mps 750 mmHg 53%
    11:00 +38°C° 0 mm 3 mps 750 mmHg 49%
    12:00 +39°C° 0 mm 3 mps 749 mmHg 44%
    13:00 +40°C° 0 mm 3 mps 749 mmHg 42%
    14:00 +40°C° 0 mm 3 mps 748 mmHg 40%
    15:00 +42°C° 0 mm 3 mps 748 mmHg 38%
    16:00 +40°C° 0 mm 3 mps 748 mmHg 42%
    17:00 +40°C° 0 mm 4 mps 748 mmHg 45%
    18:00 +39°C° 0 mm 5 mps 747 mmHg 49%
    19:00 +37°C° 0 mm 5 mps 748 mmHg 54%
    20:00 +36°C° 0 mm 5 mps 749 mmHg 59%
    21:00 +34°C° 0 mm 5 mps 749 mmHg 64%
    22:00 +34°C° 0 mm 4 mps 749 mmHg 67%
    23:00 +33°C° 0 mm 4 mps 750 mmHg 69%

    19 July, Friday

    Time Temperature Precipitation Wind Pressure Humidity
    00:00 +33°C° 0 mm 4 mps 750 mmHg 72%
    01:00 +33°C° 0 mm 3 mps 749 mmHg 74%
    02:00 +31°C° 0 mm 3 mps 749 mmHg 76%
    03:00 +31°C° 0 mm 3 mps 749 mmHg 77%
    04:00 +31°C° 0 mm 3 mps 749 mmHg 79%
    05:00 +31°C° 0 mm 3 mps 750 mmHg 80%
    06:00 +31°C° 0 mm 3 mps 750 mmHg 81%
    07:00 +33°C° 0 mm 3 mps 750 mmHg 74%
    08:00 +34°C° 0 mm 3 mps 751 mmHg 66%
    09:00 +36°C° 0 mm 3 mps 751 mmHg 59%
    10:00 +37°C° 0 mm 3 mps 751 mmHg 53%
    11:00 +38°C° 0 mm 3 mps 750 mmHg 47%
    12:00 +40°C° 0 mm 3 mps 750 mmHg 42%
    13:00 +41°C° 0 mm 4 mps 750 mmHg 41%
    14:00 +41°C° 0 mm 4 mps 749 mmHg 41%
    15:00 +41°C° 0 mm 5 mps 748 mmHg 40%
    16:00 +40°C° 0 mm 5 mps 748 mmHg 44%
    17:00 +39°C° 0 mm 5 mps 748 mmHg 47%
    18:00 +37°C° 0 mm 5 mps 748 mmHg 51%
    19:00 +36°C° 0 mm 5 mps 749 mmHg 56%
    20:00 +35°C° 0 mm 6 mps 749 mmHg 61%
    21:00 +34°C° 0 mm 6 mps 750 mmHg 67%
    22:00 +33°C° 0 mm 5 mps 750 mmHg 69%
    23:00 +33°C° 0 mm 5 mps 750 mmHg 71%

    20 July, Saturday

    Time Temperature Precipitation Wind Pressure Humidity
    00:00 +33°C° 0 mm 4 mps 750 mmHg 73%
    01:00 +33°C° 0 mm 4 mps 750 mmHg 74%
    02:00 +32°C° 0 mm 4 mps 750 mmHg 76%
    03:00 +31°C° 0 mm 3 mps 750 mmHg 77%
    04:00 +31°C° 0 mm 3 mps 750 mmHg 78%
    05:00 +31°C° 0 mm 3 mps 750 mmHg 79%
    06:00 +31°C° 0 mm 3 mps 751 mmHg 80%
    07:00 +33°C° 0 mm 4 mps 751 mmHg 73%
    08:00 +35°C° 0 mm 4 mps 751 mmHg 67%
    09:00 +36°C° 0 mm 5 mps 751 mmHg 60%
    10:00 +37°C° 0 mm 5 mps 751 mmHg 56%
    11:00 +39°C° 0 mm 5 mps 751 mmHg 51%
    12:00 +40°C° 0 mm 5 mps 750 mmHg 47%
    13:00 +40°C° 0 mm 5 mps 750 mmHg 47%
    14:00 +40°C° 0 mm 5 mps 749 mmHg 47%
    15:00 +40°C° 0 mm 6 mps 748 mmHg 47%
    16:00 +39°C° 0 mm 6 mps 748 mmHg 49%
    17:00 +39°C° 0 mm 6 mps 748 mmHg 52%
    18:00 +38°C° 0 mm 6 mps 748 mmHg 54%
    19:00 +36°C° 0 mm 6 mps 748 mmHg 59%
    20:00 +34°C° 0 mm 6 mps 749 mmHg 64%
    21:00 +33°C° 0 mm 6 mps 750 mmHg 69%
    22:00 +33°C° 0 mm 6 mps 750 mmHg 70%
    23:00 +33°C° 0 mm 6 mps 750 mmHg 71%

    21 July, Sunday

    Time Temperature Precipitation Wind Pressure Humidity
    00:00 +33°C° 0 mm 6 mps 750 mmHg 72%
    01:00 +32°C° 0 mm 6 mps 749 mmHg 73%
    02:00 +32°C° 0 mm 5 mps 749 mmHg 73%
    03:00 +32°C° 0 mm 5 mps 749 mmHg 74%
    04:00 +32°C° 0 mm 5 mps 749 mmHg 75%
    05:00 +32°C° 0 mm 5 mps 749 mmHg 76%
    06:00 +32°C° 0 mm 5 mps 749 mmHg 78%
    07:00 +33°C° 0 mm 5 mps 749 mmHg 73%
    08:00 +34°C° 0 mm 5 mps 750 mmHg 68%
    09:00 +35°C° 0 mm 6 mps 750 mmHg 62%
    10:00 +38°C° 0 mm 6 mps 750 mmHg 57%
    11:00 +39°C° 0 mm 5 mps 749 mmHg 51%
    12:00 +40°C° 0 mm 5 mps 749 mmHg 45%
    13:00 +40°C° 0 mm 6 mps 748 mmHg 45%
    14:00 +40°C° 0 mm 6 mps 748 mmHg 44%
    15:00 +41°C° 0 mm 6 mps 747 mmHg 44%
    16:00 +39°C° 0 mm 6 mps 747 mmHg 47%
    17:00 +38°C° 0 mm 6 mps 747 mmHg 51%
    18:00 +36°C° 0 mm 6 mps 747 mmHg 54%
    19:00 +35°C° 0 mm 6 mps 748 mmHg 59%
    20:00 +34°C° 0 mm 6 mps 748 mmHg 63%
    21:00 +34°C° 0 mm 7 mps 749 mmHg 68%
    22:00 +33°C° 0 mm 6 mps 749 mmHg 70%
    23:00 +33°C° 0 mm 6 mps 749 mmHg 71%
    Show more